Skip Page Navigation
NASA JPL Caltech
NASA Logo - Jet Propulsion Laboratory + View the NASA Portal
+ Center for Near-Earth Object Studies
JPL Home Earth Solar System Stars & Galaxies Technology
JPL Solar System Dynamics
BODIES ORBITS EPHEMERIDES TOOLS PHYSICAL DATA DISCOVERY FAQ SITE MAP
IMPORTANT: The SSD Announcement email list is now available. Major changes are coming in the near future, including possible hostname and/or URL changes. To be notified of such changes, subscribe to this email list.

Please visit this page for more details.


JPL Small-Body Database Browser
Search: [ help ]  
65188 (2002 CA247)
Classification: Main-belt Asteroid          SPK-ID: 2065188
Ephemeris | Orbit Diagram | Orbital Elements | Mission Design | Physical Parameters | Discovery Circumstances ]

[ show orbit diagram ]
Orbital Elements at Epoch 2458600.5 (2019-Apr-27.0) TDB
Reference: JPL 20 (heliocentric ecliptic J2000)
 Element Value Uncertainty (1-sigma)   Units 
e .1561439638120125 5.3695e-08  
a 2.768772808341649 1.8305e-08 au
q 2.336445647152266 1.4798e-07 au
i 4.570706661732083 4.7441e-06 deg
node 113.097909440468 7.7546e-05 deg
peri 231.3077059706548 7.909e-05 deg
M 66.433481294655 1.5446e-05 deg
tp 2458289.962595286711
(2018-Jun-20.46259529)
7.2061e-05 TDB
period 1682.788008669035
4.61
1.6688e-05
4.569e-08
d
yr
n .21393069010798 2.1215e-09 deg/d
Q 3.201099969531032 2.1163e-08 au
  Orbit Determination Parameters
   # obs. used (total)      590  
   data-arc span      8029 days (21.98 yr)  
   first obs. used      1997-01-31  
   last obs. used      2019-01-25  
   planetary ephem.      DE431  
   SB-pert. ephem.      SB431-N16  
   condition code      0  
   norm. resid. RMS      .62379  
   source      ORB  
   producer      Otto Matic  
   solution date      2019-Jul-13 04:04:36  

Additional Information
 Earth MOID = 1.33107 au 
 Jupiter MOID = 2.20053 au 
 T_jup = 3.316 
[ show covariance matrix ]

Ephemeris | Orbit Diagram | Orbital Elements | Mission Design | Physical Parameters | Discovery Circumstances ]

Physical Parameter Table
Parameter Symbol Value Units Sigma Reference Notes
absolute magnitude H 15.3   n/a MPO412591  
diameter diameter 2.744 km 0.578 urn:nasa:pds:neowise_diameters_albedos::2.0[mainbelt] (http://adsabs.harvard.edu/abs/2011ApJ...741...68M)  
geometric albedo albedo 0.112   0.020 urn:nasa:pds:neowise_diameters_albedos::2.0[mainbelt] (http://adsabs.harvard.edu/abs/2011ApJ...741...68M)  

65188 (2002 CA247)          Discovered 2002-Feb-15 by LINEAR at Socorro
Reference: 20030614/Numbers.arcLast Updated: 2004-04-19

Alternate Designations
 2002 CA247 = 1999 NA14 
Ephemeris | Orbit Diagram | Orbital Elements | Mission Design | Physical Parameters | Discovery Circumstances ]
ABOUT SSD CREDITS/AWARDS PRIVACY/COPYRIGHT GLOSSARY LINKS
FirstGov 2020-Jan-18 23:11 UT
(server date/time)  
NASA Home Page
Site Manager:   Ryan S. Park
Webmaster  Alan B. Chamberlin